Date,TemperatureHighF,TemperatureAvgF,TemperatureLowF,DewpointHighF,DewpointAvgF,DewpointLowF,HumidityHigh,HumidityAvg,HumidityLow,PressureMaxIn,PressureMinIn,WindSpeedMaxMPH,WindSpeedAvgMPH,GustSpeedMaxMPH,PrecipitationSumIn
2013-6-1,79,68,64,69,66,62,99,92,62,29.89,29.71,8,3,12,0.24
2013-6-2,70,63,52,65,56,42,93,77,63,30.00,29.67,14,4,14,0.00
2013-6-3,67,55,40,48,40,25,99,62,36,30.08,30.00,8,2,11,0.00
2013-6-4,70,62,43,53,44,35,99,55,35,30.09,30.02,8,3,12,0.12
2013-6-5,71,62,43,48,39,26,57,44,33,30.09,29.97,14,5,16,0.00
2013-6-6,66,59,56,52,46,44,67,62,57,30.03,29.89,13,6,13,0.01
2013-6-7,60,54,52,53,51,49,93,87,78,29.92,29.90,4,3,4,0.00
2013-6-9,75,67,58,58,55,52,86,67,50,30.10,29.97,14,7,14,0.00
2013-6-10,74,68,61,73,65,50,99,89,55,29.96,29.74,10,4,10,1.11
2013-6-11,80,73,65,68,65,63,99,77,61,29.91,29.84,8,2,8,0.38
2013-6-12,74,68,60,71,66,60,99,93,80,29.96,29.68,8,2,10,0.13
2013-6-13,76,68,60,68,61,55,99,80,49,29.97,29.62,13,4,16,0.87
2013-6-14,73,65,57,61,55,49,99,72,45,30.10,29.97,8,2,11,0.00
2013-6-15,77,66,54,64,59,52,99,81,56,30.09,29.94,7,2,11,0.00
2013-6-16,79,70,64,68,62,53,99,80,45,29.94,29.80,11,3,14,0.26
2013-6-17,84,72,60,63,58,54,92,64,40,29.93,29.83,14,3,14,0.00
2013-6-18,70,62,53,61,51,39,99,71,37,30.09,29.91,13,5,18,0.13
2013-6-19,73,61,46,54,47,42,91,62,37,30.17,30.08,8,2,10,0.00
2013-6-20,80,68,53,57,53,47,96,63,37,30.21,30.15,9,2,9,0.00
2013-6-21,85,72,60,68,60,55,87,66,47,30.21,30.06,4,1,5,0.00
2013-6-22,85,76,69,74,68,57,96,75,62,30.10,30.00,11,2,12,0.00
2013-6-23,88,78,69,72,69,66,99,75,48,30.08,29.99,9,2,9,0.00
2013-6-24,85,76,68,73,69,66,99,80,58,30.07,29.93,10,2,11,0.02
2013-6-25,80,72,67,74,70,65,99,92,80,29.99,29.85,11,2,17,0.26
2013-6-26,81,73,64,73,69,64,99,88,71,29.90,29.77,7,2,12,0.01
2013-6-27,80,71,65,75,70,65,99,96,77,29.79,29.65,13,2,14,2.11
2013-6-28,77,70,64,70,66,62,99,93,65,29.66,29.55,8,2,14,0.01
2013-6-29,73,67,64,66,63,59,99,87,68,29.76,29.57,11,3,13,0.00
2013-6-30,78,69,62,63,60,47,92,73,50,30.03,29.76,15,4,17,0.00